This is the latest recevied weather packets stored in our database for station/object KC4JIR. If no packets are shown the sender has not sent any weather packets the latest 10 day(s).
| Time | Temp. | Humidity | Pressure | Rain* | Wind** | Luminosity | Snow |
|---|---|---|---|---|---|---|---|
| 1788205744 | 33.33° C | 57% | 1015.7 hPa | 0 mm | - | 572 W/m² | - |
| 1788205439 | 33.33° C | 57% | 1015.6 hPa | 0 mm | - | 590 W/m² | - |
| 1788205139 | 33.89° C | 57% | 1015.7 hPa | 0 mm | - | 608 W/m² | - |
| 1788204835 | 33.89° C | 58% | 1016 hPa | 0 mm | - | 600 W/m² | - |
| 1788204530 | 33.89° C | 58% | 1015.9 hPa | 0 mm | - | 612 W/m² | - |
| 1788204230 | 33.89° C | 62% | 1016 hPa | 0 mm | - | 631 W/m² | - |
| 1788203925 | 33.33° C | 64% | 1015.9 hPa | 0 mm | - | 637 W/m² | - |
| 1788203622 | 33.33° C | 62% | 1016.4 hPa | 0 mm | - | 638 W/m² | - |
| 1788203317 | 32.78° C | 61% | 1016.3 hPa | 0 mm | - | 612 W/m² | - |
| 1788203017 | 33.33° C | 62% | 1016.2 hPa | 0 mm | - | 610 W/m² | - |
| 1788202716 | 33.89° C | 61% | 1016.4 hPa | 0 mm | - | 595 W/m² | - |
| 1788202412 | 33.33° C | 65% | 1016.5 hPa | 0 mm | - | 634 W/m² | - |
| 1788202111 | 32.78° C | 65% | 1016.6 hPa | 0 mm | - | 683 W/m² | - |
| 1788201807 | 32.78° C | 68% | 1016.9 hPa | 0 mm | - | 564 W/m² | - |
| 1788201502 | 32.78° C | 68% | 1016.8 hPa | 0 mm | - | 134 W/m² | - |
| 1788201201 | 33.33° C | 64% | 1016.8 hPa | 0 mm | - | 324 W/m² | - |
| 1788200901 | 33.33° C | 64% | 1016.9 hPa | 0 mm | - | 737 W/m² | - |
| 1788200596 | 32.78° C | 66% | 1016.9 hPa | 0 mm | - | 280 W/m² | - |
| 1788200291 | 32.78° C | 66% | 1016.9 hPa | 0 mm | - | 713 W/m² | - |
| 1788199986 | 32.78° C | 64% | 1016.7 hPa | 0 mm | - | 747 W/m² | - |
| 1788199681 | 32.78° C | 63% | 1017.1 hPa | 0 mm | - | 744 W/m² | - |
| 1788199375 | 32.78° C | 67% | 1017 hPa | 0 mm | - | 727 W/m² | - |
| 1788199075 | 32.78° C | 67% | 1017.1 hPa | 0 mm | - | 719 W/m² | - |
| 1788198772 | 32.22° C | 66% | 1017.2 hPa | 0 mm | - | 727 W/m² | - |
| 1788198467 | 32.78° C | 66% | 1017.2 hPa | 0 mm | - | 170 W/m² | - |
* Rain latest hour (hover to see other rain measurements)
** Current wind speed in m/s (hover to see current wind gust speed)